CW3322 Weather Reports


time (UTC)temp
C
wind
direction
speed
KPH
gust
KPH
rain 1hr
cm
rain 24hr
cm
rain mn
cm
humidity
%
barometer
mb
20260504193534 13 0.0 0.0 0.00 0.00 0.00 89 1014.3
20260504193027 13 0.0 0.0 0.00 0.00 0.00 89 1013.9
20260504192520 13 0.0 0.0 0.00 0.00 0.00 89 1013.3
20260504192024 13 0.0 0.0 0.00 0.00 0.00 89 1013.2
20260504191052 13 0.0 0.0 0.00 0.00 0.00 89 1014.2
20260504190515 13 0.0 0.0 0.00 0.00 0.00 88 1014.2
20260504190120 13 0.0 0.0 0.00 0.00 0.00 87 1014.2
20260504185525 13 0.0 0.0 0.00 0.00 0.00 88 1014.2
20260504185048 13 0.0 0.0 0.00 0.00 0.00 87 1014.1
20260504184524 14 0.0 0.0 0.00 0.00 0.00 88 1014.1
20260504184017 14 0.0 0.0 0.00 0.00 0.00 86 1014.1
20260504183521 14 0.0 0.0 0.00 0.00 0.00 85 1014.1
20260504183027 14 0.0 0.0 0.00 0.00 0.00 85 1014.1
20260504182520 14 0.0 0.0 0.00 0.00 0.00 86 1014.1
20260504182025 14 0.0 0.0 0.00 0.00 0.00 86 1014.0
20260504181517 14 0.0 0.0 0.00 0.00 0.00 85 1014.0
20260504181023 15 0.0 0.0 0.00 0.00 0.00 85 1014.0
20260504180545 15 0.0 0.0 0.00 0.00 0.00 84 1014.0
20260504180051 15 0.0 0.0 0.00 0.00 0.00 83 1014.0
20260504175526 15 0.0 0.0 0.00 0.00 0.00 83 1014.0
20260504175018 15 0.0 0.0 0.00 0.00 0.00 83 1013.9
20260504174524 15 0.0 0.0 0.00 0.00 0.00 84 1013.9
20260504174016 15 0.0 0.0 0.00 0.00 0.00 82 1013.9
20260504173622 15 0.0 0.0 0.00 0.00 0.00 78 1013.9
20260504173056 15 0.0 0.0 0.00 0.00 0.00 78 1013.9
20260504172519 15 0.0 0.0 0.00 0.00 0.00 77 1013.9
20260504172024 15 0.0 0.0 0.00 0.00 0.00 77 1013.9
20260504171547 15 0.0 0.0 0.00 0.00 0.00 76 1013.8
20260504171122 15 0.0 0.0 0.00 0.00 0.00 76 1013.8
20260504170527 15 0.0 0.0 0.00 0.00 0.00 74 1013.8
20260504151020 16 306 1.6 3.2 0.00 0.00 0.00 72 1013.9
20260504150524 16 312 0.0 1.6 0.00 0.00 0.00 72 1013.9
20260504150117 17 0.0 0.0 0.00 0.00 0.00 73 1014.0
20260504141049 18 314 0.0 3.2 0.00 0.00 0.00 61 1014.0
20260504140916 18 316 0.0 1.6 0.00 0.00 0.00 59 1014.0
20260504130524 18 324 0.0 1.6 0.00 0.00 0.00 64 1015.1
20260504110525 17 314 0.0 1.6 0.00 0.00 0.00 70 1015.1
20260504100520 17 312 0.0 1.6 0.00 0.00 0.00 69 1015.1
20260504081518 18 320 0.0 0.0 0.00 0.00 0.00 62 1015.3
20260504081438 18 353 1.6 8.0 0.00 0.00 0.00 60 1015.3
20260504080531 18 321 1.6 1.6 0.00 0.00 0.00 60 1015.3
20260504045817 6 0.0 0.0 0.00 0.00 0.00 99 1014.9
20260504045023 6 0.0 0.0 0.00 0.00 0.00 99 1014.9
20260504044515 6 0.0 0.0 0.00 0.00 0.00 99 1014.9
20260504044157 6 0.0 0.0 0.00 0.00 0.00 99 1015.0
20260504043525 6 0.0 0.0 0.00 0.00 0.00 99 1015.0
20260504043016 6 0.0 0.0 0.00 0.00 0.00 99 1015.0
20260504042629 6 0.0 0.0 0.00 0.00 0.00 99 1015.0
20260504042025 6 0.0 0.0 0.00 0.00 0.00 99 1015.0
20260504041951 6 0.0 0.0 0.00 0.00 0.00 99 1015.0
20260504041022 6 0.0 0.0 0.00 0.00 0.00 99 1015.0
20260504040526 6 0.0 0.0 0.00 0.00 0.00 99 1015.0
20260504040018 6 0.0 0.0 0.00 0.00 0.00 99 1015.0
20260504035542 6 0.0 0.0 0.00 0.00 0.00 99 1015.0
20260504035027 6 0.0 0.0 0.00 0.00 0.00 99 1015.0
20260504034730 6 0.0 0.0 0.00 0.00 0.00 99 1015.0
20260504034053 6 0.0 0.0 0.00 0.00 0.00 99 1015.1
20260504033910 6 0.0 0.0 0.00 0.00 0.00 99 1015.1
20260504033020 6 0.0 0.0 0.00 0.00 0.00 99 1015.1
20260504032525 6 0.0 0.0 0.00 0.00 0.00 99 1015.1
20260504032018 6 0.0 0.0 0.00 0.00 0.00 99 1015.1
20260504031522 6 0.0 0.0 0.00 0.00 0.00 99 1015.1
20260504031027 6 0.0 0.0 0.00 0.00 0.00 99 1015.1
20260504030518 6 0.0 0.0 0.00 0.00 0.00 99 1015.1
20260504030023 6 0.0 0.0 0.00 0.00 0.00 99 1015.1
20260504025515 6 0.0 0.0 0.00 0.00 0.00 99 1015.1
20260504025020 6 0.0 0.0 0.00 0.00 0.00 99 1015.1
20260504024525 6 0.0 0.0 0.00 0.00 0.00 99 1015.1
20260504024017 6 0.0 0.0 0.00 0.00 0.00 99 1015.2
20260504023521 6 0.0 0.0 0.00 0.00 0.00 99 1015.2
20260504023026 6 0.0 0.0 0.00 0.00 0.00 99 1015.2
20260504022518 6 0.0 0.0 0.00 0.00 0.00 99 1015.2
20260504022023 6 0.0 0.0 0.00 0.00 0.00 99 1015.2
20260504021516 6 0.0 0.0 0.00 0.00 0.00 99 1015.2
20260504021020 7 0.0 0.0 0.00 0.00 0.00 99 1015.2
20260504020525 7 0.0 0.0 0.00 0.00 0.00 99 1015.2
20260504020018 7 0.0 0.0 0.00 0.00 0.00 99 1015.2
20260504015523 7 0.0 0.0 0.00 0.00 0.00 99 1015.2
20260504015015 7 0.0 0.0 0.00 0.00 0.00 99 1015.2
20260504014520 7 0.0 0.0 0.00 0.00 0.00 99 1015.2
20260504014249 7 0.0 0.0 0.00 0.00 0.00 99 1015.2
20260504013517 7 0.0 0.0 0.00 0.00 0.00 99 1015.2
20260504013207 7 0.0 0.0 0.00 0.00 0.00 98 1015.2
20260504012527 7 0.0 0.0 0.00 0.00 0.00 99 1015.2
20260504012019 7 0.0 0.0 0.00 0.00 0.00 99 1015.2
20260504011822 7 0.0 0.0 0.00 0.00 0.00 98 1015.2
20260504011017 7 0.0 0.0 0.00 0.00 0.00 99 1015.2
20260504010920 7 0.0 0.0 0.00 0.00 0.00 97 1015.2
20260504010026 7 0.0 0.0 0.00 0.00 0.00 97 1015.2
20260504005519 7 0.0 0.0 0.00 0.00 0.00 97 1015.2
20260504005024 7 0.0 0.0 0.00 0.00 0.00 97 1015.2
20260504004517 7 0.0 0.0 0.00 0.00 0.00 97 1015.2
20260504004022 7 0.0 0.0 0.00 0.00 0.00 97 1015.2
20260504003527 7 0.0 0.0 0.00 0.00 0.00 96 1015.2
20260504003019 7 0.0 0.0 0.00 0.00 0.00 95 1015.2
20260504002554 7 0.0 0.0 0.00 0.00 0.00 95 1015.2
20260504002016 7 0.0 0.0 0.00 0.00 0.00 96 1015.2
20260504001521 7 0.0 0.0 0.00 0.00 0.00 96 1015.2
20260504001056 7 0.0 0.0 0.00 0.00 0.00 96 1015.2
20260504000519 7 0.0 0.0 0.00 0.00 0.00 94 1015.2
20260504000023 7 0.0 0.0 0.00 0.00 0.00 94 1015.2
20260503235516 7 0.0 0.0 0.00 0.00 0.00 94 1015.2
20260503235020 7 0.0 0.0 0.00 0.00 0.00 94 1015.2
20260503234525 8 0.0 0.0 0.00 0.00 0.00 94 1015.2
20260503234017 8 0.0 0.0 0.00 0.00 0.00 95 1015.2
20260503233523 8 0.0 0.0 0.00 0.00 0.00 95 1015.2
20260503233015 7 0.0 0.0 0.00 0.00 0.00 95 1015.2
20260503232520 8 0.0 0.0 0.00 0.00 0.00 93 1015.2
20260503232055 8 0.0 0.0 0.00 0.00 0.00 92 1015.2
20260503231518 8 0.0 0.0 0.00 0.00 0.00 92 1015.2
20260503231023 8 0.0 0.0 0.00 0.00 0.00 93 1015.2
20260503230515 8 0.0 0.0 0.00 0.00 0.00 91 1015.2
20260503230103 8 0.0 0.0 0.00 0.00 0.00 91 1015.2
20260503225526 8 0.0 0.0 0.00 0.00 0.00 91 1015.2
20260503225019 8 0.0 0.0 0.00 0.00 0.00 91 1015.2
20260503224632 8 0.0 0.0 0.00 0.00 0.00 92 1015.2
20260503224055 8 0.0 0.0 0.00 0.00 0.00 91 1015.2
20260503223617 8 0.0 0.0 0.00 0.00 0.00 91 1015.2
20260503223021 8 0.0 0.0 0.00 0.00 0.00 90 1015.2
20260503222527 8 0.0 0.0 0.00 0.00 0.00 89 1015.2
20260503222019 8 0.0 0.0 0.00 0.00 0.00 90 1015.2
20260503221525 9 0.0 0.0 0.00 0.00 0.00 90 1015.2
20260503221017 9 0.0 0.0 0.00 0.00 0.00 90 1015.1
20260503220522 9 0.0 0.0 0.00 0.00 0.00 89 1015.1
20260503220045 9 0.0 0.0 0.00 0.00 0.00 87 1015.1
20260503215520 9 0.0 0.0 0.00 0.00 0.00 87 1015.1
20260503215025 9 0.0 0.0 0.00 0.00 0.00 87 1015.1
20260503214517 9 0.0 0.0 0.00 0.00 0.00 87 1015.1
20260503214022 10 0.0 0.0 0.00 0.00 0.00 88 1015.2
20260503213527 10 0.0 0.0 0.00 0.00 0.00 86 1015.2
20260503213020 10 0.0 0.0 0.00 0.00 0.00 85 1015.2
20260503212525 10 0.0 0.0 0.00 0.00 0.00 86 1015.2
20260503212017 10 0.0 0.0 0.00 0.00 0.00 86 1015.2
20260503211523 10 0.0 0.0 0.00 0.00 0.00 86 1015.2
20260503211015 10 0.0 0.0 0.00 0.00 0.00 84 1015.2
20260503210520 10 0.0 0.0 0.00 0.00 0.00 83 1015.2
20260503210025 11 0.0 0.0 0.00 0.00 0.00 82 1015.2
20260503205518 11 0.0 0.0 0.00 0.00 0.00 82 1015.2
20260503205023 11 0.0 0.0 0.00 0.00 0.00 82 1015.2
20260503204516 11 0.0 0.0 0.00 0.00 0.00 81 1015.2
20260503204021 11 0.0 0.0 0.00 0.00 0.00 80 1015.2
20260503203526 11 0.0 0.0 0.00 0.00 0.00 78 1015.2
20260503203019 12 0.0 0.0 0.00 0.00 0.00 77 1015.2
20260503202524 12 0.0 0.0 0.00 0.00 0.00 77 1015.2
20260503202017 12 0.0 0.0 0.00 0.00 0.00 77 1015.2
20260503201522 12 0.0 0.0 0.00 0.00 0.00 75 1015.2
20260503201027 12 0.0 0.0 0.00 0.00 0.00 75 1015.2
20260503200550 12 0.0 0.0 0.00 0.00 0.00 76 1015.2
20260503200025 12 0.0 0.0 0.00 0.00 0.00 74 1014.8
20260503195548 13 0.0 0.0 0.00 0.00 0.00 72 1014.2
20260503195023 13 0.0 0.0 0.00 0.00 0.00 73 1014.3
20260503194515 13 0.0 0.0 0.00 0.00 0.00 72 1014.7
20260503194051 13 0.0 0.0 0.00 0.00 0.00 71 1015.3